CW4438 Weather Reports


time (UTC)temp
C
wind
direction
speed
KPH
gust
KPH
rain 1hr
cm
rain 24hr
cm
rain mn
cm
humidity
%
barometer
mb
20260510120201 13 63 0.0 1.6 0.00 0.00 0.00 91 1014.8
20260510115659 13 63 0.0 1.6 0.00 0.00 0.00 91 1014.7
20260510115157 13 63 0.0 1.6 0.00 0.00 0.00 91 1014.7
20260510114654 13 63 0.0 1.6 0.00 0.00 0.00 91 1014.7
20260510113654 14 63 0.0 1.6 0.00 0.00 0.00 90 1014.6
20260510112653 14 63 0.0 3.2 0.00 0.00 0.00 90 1014.6
20260510112152 14 63 0.0 3.2 0.00 0.00 0.00 90 1014.6
20260510111653 14 63 0.0 0.0 0.00 0.00 0.00 89 1014.7
20260510110653 14 63 0.0 1.6 0.00 0.00 0.00 89 1014.6
20260510110149 14 63 0.0 1.6 0.00 0.00 0.00 89 1014.6
20260510105639 14 63 0.0 1.6 0.00 0.00 0.00 88 1014.5
20260510104637 15 63 0.0 1.6 0.00 0.00 0.00 87 1014.5
20260510104135 15 63 0.0 0.0 0.00 0.00 0.00 87 1014.3
20260510103635 15 63 0.0 1.6 0.00 0.00 0.00 86 1014.3
20260510103135 15 63 0.0 1.6 0.00 0.00 0.00 86 1014.4
20260510102133 15 63 0.0 3.2 0.00 0.00 0.00 85 1014.3
20260510101632 15 63 0.0 3.2 0.00 0.00 0.00 85 1014.3
20260510101132 15 63 0.0 1.6 0.00 0.00 0.00 84 1014.4
20260510100636 16 63 0.0 1.6 0.00 0.00 0.00 84 1014.4
20260510100141 16 63 0.0 1.6 0.00 0.00 0.00 85 1014.4
20260510095638 16 63 0.0 3.2 0.00 0.00 0.00 85 1014.3
20260510095135 16 63 0.0 3.2 0.00 0.00 0.00 84 1014.1
20260510094635 16 63 0.0 1.6 0.00 0.00 0.00 84 1014.1
20260510094132 16 63 0.0 1.6 0.00 0.00 0.00 83 1013.9
20260510093631 16 63 0.0 0.0 0.00 0.00 0.00 83 1013.9
20260510093132 16 13 0.0 0.0 0.00 0.00 0.00 82 1013.6
20260510092631 16 61 0.0 1.6 0.00 0.00 0.00 83 1013.5
20260510092132 16 62 0.0 3.2 0.00 0.00 0.00 82 1013.3
20260510091124 16 92 0.0 3.2 0.00 0.00 0.00 82 1013.0
20260510090616 16 154 0.0 3.2 0.00 0.00 0.00 83 1013.0
20260510090115 16 98 0.0 3.2 0.00 0.00 0.00 82 1013.0
20260510085616 16 112 0.0 3.2 0.00 0.00 0.00 82 1012.9
20260510085110 16 111 1.6 3.2 0.00 0.00 0.00 81 1012.7
20260510084609 16 109 1.6 3.2 0.00 0.00 0.00 82 1012.7
20260510084114 16 259 0.0 3.2 0.00 0.00 0.00 82 1012.8
20260510083103 16 248 1.6 6.4 0.00 0.00 0.00 82 1012.9
20260510082604 15 210 1.6 6.4 0.00 0.00 0.00 82 1012.8
20260510082104 15 147 0.0 3.2 0.00 0.00 0.00 83 1012.7
20260510081604 15 119 0.0 1.6 0.00 0.00 0.00 84 1012.9
20260510080603 15 136 0.0 1.6 0.00 0.00 0.00 83 1013.1
20260510080103 15 142 0.0 3.2 0.00 0.00 0.00 84 1013.0
20260510075603 15 142 0.0 3.2 0.00 0.00 0.00 85 1013.0
20260510074103 15 156 0.0 1.6 0.00 0.00 0.00 85 1012.8
20260510073602 15 157 0.0 0.0 0.00 0.00 0.00 85 1012.8
20260510073103 15 156 0.0 0.0 0.00 0.00 0.00 85 1012.8
20260510072105 15 156 0.0 1.6 0.00 0.00 0.00 86 1012.9
20260510071605 15 156 0.0 1.6 0.00 0.00 0.00 87 1013.0
20260510071104 15 156 0.0 1.6 0.00 0.00 0.00 88 1013.0
20260510070604 15 156 0.0 1.6 0.00 0.00 0.00 88 1013.0
20260510070105 15 156 0.0 1.6 0.00 0.00 0.00 88 1013.1
20260510065103 15 156 0.0 1.6 0.00 0.00 0.00 89 1013.2
20260510064603 15 156 0.0 1.6 0.00 0.00 0.00 90 1013.3
20260510064104 15 156 0.0 1.6 0.00 0.00 0.00 90 1013.4
20260510063603 15 156 0.0 0.0 0.00 0.00 0.00 89 1013.6
20260510063103 15 156 0.0 1.6 0.00 0.00 0.00 89 1013.8
20260510062103 14 156 0.0 1.6 0.00 0.00 0.00 88 1013.9
20260510061602 14 156 0.0 0.0 0.00 0.00 0.00 88 1013.9
20260510061103 14 156 0.0 0.0 0.00 0.00 0.00 88 1013.9
20260510060603 14 156 0.0 0.0 0.00 0.00 0.00 88 1013.9
20260510055603 14 156 0.0 0.0 0.00 0.00 0.00 87 1013.8
20260510055103 14 156 0.0 1.6 0.00 0.00 0.00 87 1013.8
20260510054602 14 156 0.0 1.6 0.00 0.00 0.00 87 1013.8
20260510054104 14 156 0.0 1.6 0.00 0.00 0.00 87 1013.6
20260510053603 14 156 0.0 3.2 0.00 0.00 0.00 87 1013.6
20260510053102 14 156 0.0 3.2 0.00 0.00 0.00 86 1013.5
20260510052605 14 82 0.0 0.0 0.00 0.00 0.00 85 1013.5
20260510051604 14 82 0.0 0.0 0.00 0.00 0.00 85 1013.3
20260510051059 14 82 0.0 0.0 0.00 0.00 0.00 84 1013.3
20260510050547 14 82 0.0 1.6 0.00 0.00 0.00 83 1013.3
20260510050037 14 82 0.0 1.6 0.00 0.00 0.00 83 1013.3
20260510045537 14 82 0.0 4.8 0.00 0.00 0.00 84 1013.3
20260510045037 14 82 0.0 4.8 0.00 0.00 0.00 84 1013.3
20260510044537 14 116 0.0 1.6 0.00 0.00 0.00 82 1013.2
20260510044038 15 116 0.0 0.0 0.00 0.00 0.00 82 1013.2
20260510043538 15 116 0.0 0.0 0.00 0.00 0.00 80 1013.1
20260510043038 15 116 0.0 0.0 0.00 0.00 0.00 79 1013.1
20260510042538 15 116 0.0 0.0 0.00 0.00 0.00 78 1013.1
20260510042035 15 116 0.0 0.0 0.00 0.00 0.00 78 1013.1
20260510041035 15 116 0.0 0.0 0.00 0.00 0.00 79 1013.1
20260510040532 15 116 0.0 0.0 0.00 0.00 0.00 78 1013.2
20260510040032 15 116 0.0 0.0 0.00 0.00 0.00 78 1013.2
20260510035531 15 116 0.0 0.0 0.00 0.00 0.00 76 1013.2
20260510034531 15 116 0.0 0.0 0.00 0.00 0.00 77 1012.8
20260510033531 15 116 0.0 3.2 0.00 0.00 0.00 77 1012.5
20260510033031 15 116 0.0 3.2 0.00 0.00 0.00 77 1012.4
20260510032531 16 118 0.0 1.6 0.00 0.00 0.00 77 1012.3
20260510032031 16 118 0.0 1.6 0.00 0.00 0.00 76 1012.3
20260510031032 16 118 0.0 0.0 0.00 0.00 0.00 73 1012.2
20260510030531 16 118 0.0 1.6 0.00 0.00 0.00 73 1012.1
20260510030032 16 118 0.0 1.6 0.00 0.00 0.00 72 1012.1
20260510025532 16 118 0.0 0.0 0.00 0.00 0.00 71 1011.9
20260510025032 17 118 0.0 0.0 0.00 0.00 0.00 71 1011.9
20260510024530 17 118 0.0 0.0 0.00 0.00 0.00 71 1011.9
20260510024030 17 118 0.0 0.0 0.00 0.00 0.00 69 1011.7
20260510023523 18 118 0.0 0.0 0.00 0.00 0.00 66 1011.6
20260510023017 18 118 0.0 0.0 0.00 0.00 0.00 65 1011.5
20260510022509 18 118 0.0 0.0 0.00 0.00 0.00 68 1011.5
20260510022010 18 118 0.0 0.0 0.00 0.00 0.00 69 1011.3
20260510021510 18 118 0.0 0.0 0.00 0.00 0.00 65 1011.2
20260510020505 18 117 0.0 1.6 0.00 0.00 0.00 63 1010.9
20260510020005 19 117 0.0 0.0 0.00 0.00 0.00 66 1010.8
20260510015505 19 118 0.0 1.6 0.00 0.00 0.00 63 1010.7
20260510015005 20 118 0.0 1.6 0.00 0.00 0.00 60 1010.5
20260510014505 20 118 0.0 1.6 0.00 0.00 0.00 58 1010.5
20260510014004 20 118 0.0 1.6 0.00 0.00 0.00 57 1010.4
20260510013504 20 118 0.0 1.6 0.00 0.00 0.00 56 1010.3
20260510013004 20 118 0.0 1.6 0.00 0.00 0.00 55 1010.2
20260510012505 21 118 0.0 0.0 0.00 0.00 0.00 54 1010.2
20260510011504 21 118 0.0 1.6 0.00 0.00 0.00 51 1010.0
20260510010504 22 118 0.0 1.6 0.00 0.03 0.00 51 1010.0
20260510010005 22 18 0.0 1.6 0.00 0.03 0.00 50 1010.0
20260510005503 23 17 0.0 1.6 0.00 0.03 0.00 48 1009.9
20260510005004 23 18 0.0 1.6 0.00 0.03 0.00 49 1009.9
20260510004004 23 16 0.0 1.6 0.00 0.03 0.00 45 1009.8
20260510003503 24 16 0.0 0.0 0.00 0.08 0.00 45 1009.9
20260510003003 24 115 0.0 1.6 0.00 0.10 0.00 46 1009.9
20260510002503 25 78 0.0 1.6 0.00 0.10 0.00 45 1009.9
20260510002003 25 77 0.0 3.2 0.00 0.10 0.00 44 1009.8
20260510001502 25 79 0.0 4.8 0.00 0.10 0.00 43 1009.8
20260510001003 25 97 1.6 4.8 0.00 0.10 0.00 41 1009.9
20260510000500 25 78 1.6 3.2 0.00 0.10 0.00 43 1009.9
20260510000003 25 157 0.0 3.2 0.00 0.10 0.00 41 1009.9
20260509235502 25 63 1.6 4.8 0.00 0.10 0.00 41 1009.9
20260509235002 26 96 1.6 4.8 0.00 0.10 0.00 41 1009.9
20260509234502 26 141 1.6 4.8 0.00 0.10 0.00 40 1010.0
20260509234002 26 134 1.6 6.4 0.00 0.10 0.00 39 1010.0
20260509233502 26 173 1.6 6.4 0.00 0.10 0.00 39 1010.0
20260509233003 26 171 1.6 4.8 0.00 0.10 0.00 42 1010.0
20260509232503 26 87 3.2 4.8 0.00 0.10 0.00 39 1010.0
20260509231503 26 266 0.0 3.2 0.00 0.10 0.00 39 1010.0
20260509231002 27 355 0.0 3.2 0.00 0.10 0.00 40 1010.0
20260509230502 27 355 0.0 3.2 0.00 0.10 0.00 36 1009.9
20260509225501 27 23 0.0 4.8 0.00 0.10 0.00 36 1010.0
20260509225001 27 23 0.0 4.8 0.00 0.10 0.00 36 1010.1
20260509224002 27 244 0.0 3.2 0.00 0.10 0.00 38 1010.1
20260509223500 28 244 1.6 6.4 0.00 0.10 0.00 36 1010.2
20260509222501 28 275 1.6 4.8 0.00 0.10 0.00 31 1010.1
20260509222003 28 315 1.6 4.8 0.00 0.10 0.00 39 1010.1
20260509221459 28 135 1.6 3.2 0.00 0.10 0.00 36 1010.2
20260509220959 28 51 1.6 3.2 0.00 0.10 0.00 32 1010.1
20260509220459 28 21 1.6 4.8 0.00 0.10 0.00 32 1010.1
20260509215957 28 247 1.6 6.4 0.00 0.10 0.00 30 1010.1
20260509215456 28 238 1.6 6.4 0.00 0.10 0.00 33 1010.1
20260509214945 28 164 3.2 9.7 0.00 0.10 0.00 30 1010.1
20260509214443 29 109 3.2 8.0 0.00 0.10 0.00 34 1010.1
20260509213435 29 137 3.2 8.0 0.00 0.10 0.00 30 1010.1
20260509212935 29 181 1.6 6.4 0.00 0.10 0.00 31 1010.2
20260509212435 30 227 1.6 6.4 0.00 0.10 0.00 35 1010.2
20260509211936 29 217 1.6 4.8 0.00 0.10 0.00 34 1010.3
20260509211433 29 72 1.6 3.2 0.00 0.10 0.00 31 1010.4
20260509210931 29 211 1.6 3.2 0.00 0.10 0.00 33 1010.5
20260509210431 29 101 1.6 4.8 0.00 0.10 0.00 32 1010.6
20260509205930 29 222 3.2 4.8 0.00 0.10 0.00 31 1010.6
20260509205429 28 281 3.2 8.0 0.00 0.10 0.00 33 1010.7
20260509204929 28 231 3.2 8.0 0.00 0.10 0.00 33 1010.8
20260509204428 29 201 3.2 8.0 0.00 0.10 0.00 32 1010.8
20260509203930 29 234 1.6 4.8 0.00 0.10 0.00 38 1010.8
20260509203429 29 227 1.6 8.0 0.00 0.10 0.00 36 1010.7
20260509202929 28 250 4.8 8.0 0.00 0.10 0.00 40 1010.7
20260509201929 29 234 3.2 8.0 0.00 0.10 0.00 36 1010.8
20260509201429 29 217 3.2 8.0 0.00 0.10 0.00 35 1010.9
20260509200929 29 55 3.2 8.0 0.00 0.10 0.00 33 1011.1
20260509200430 29 339 1.6 4.8 0.00 0.10 0.00 37 1010.9
20260509195929 28 246 1.6 4.8 0.00 0.10 0.00 38 1010.9
20260509195429 28 169 3.2 8.0 0.00 0.10 0.00 33 1010.9
20260509194929 28 144 3.2 8.0 0.00 0.10 0.00 33 1011.2
20260509194429 28 82 1.6 6.4 0.00 0.10 0.00 34 1011.1
20260509193930 28 148 1.6 6.4 0.00 0.10 0.00 38 1010.9
20260509193429 28 47 1.6 4.8 0.00 0.10 0.00 42 1011.1
20260509192930 28 273 1.6 8.0 0.00 0.10 0.00 41 1011.2
20260509191428 28 84 1.6 6.4 0.00 0.10 0.00 33 1011.4
20260509190929 28 286 3.2 8.0 0.00 0.10 0.00 33 1011.4
20260509190430 27 129 3.2 8.0 0.00 0.10 0.00 36 1011.4
20260509185931 27 169 3.2 9.7 0.00 0.10 0.00 36 1011.5
20260509185428 27 95 3.2 9.7 0.00 0.10 0.00 33 1011.5
20260509184929 27 55 3.2 4.8 0.00 0.10 0.00 33 1011.4
20260509184430 27 348 3.2 6.4 0.00 0.10 0.00 37 1011.5
20260509183429 27 136 1.6 4.8 0.00 0.10 0.00 38 1011.5
20260509182929 27 65 1.6 4.8 0.00 0.10 0.00 37 1011.6
20260509182430 27 40 1.6 4.8 0.00 0.10 0.00 38 1011.6
20260509181928 27 93 1.6 8.0 0.00 0.10 0.00 35 1011.6
20260509181429 27 88 1.6 8.0 0.00 0.10 0.00 39 1011.5
20260509180929 27 168 3.2 6.4 0.00 0.10 0.00 38 1011.6
20260509175928 27 0 3.2 4.8 0.00 0.10 0.00 43 1011.6
20260509175429 27 227 1.6 4.8 0.00 0.10 0.00 40 1011.7
20260509174929 27 153 1.6 6.4 0.00 0.10 0.00 39 1011.7
20260509174430 27 242 3.2 8.0 0.00 0.10 0.00 37 1011.8
20260509173930 27 234 1.6 8.0 0.00 0.10 0.00 40 1011.8
20260509173430 27 215 1.6 4.8 0.00 0.10 0.00 49 1011.8
20260509172430 27 176 3.2 6.4 0.00 0.10 0.00 46 1011.9
20260509171429 26 100 1.6 4.8 0.00 0.10 0.00 51 1011.9
20260509170929 26 230 1.6 4.8 0.00 0.10 0.00 50 1011.9
20260509170429 26 238 1.6 6.4 0.00 0.10 0.00 49 1011.9
20260509165929 26 73 1.6 6.4 0.00 0.10 0.00 48 1011.8
20260509165428 26 75 1.6 4.8 0.00 0.10 0.00 51 1011.8
20260509164930 26 229 1.6 4.8 0.00 0.10 0.00 53 1011.8
20260509164429 26 159 1.6 4.8 0.00 0.10 0.00 53 1011.8
20260509163928 25 222 1.6 4.8 0.00 0.10 0.00 57 1011.9
20260509163429 25 69 1.6 4.8 0.00 0.10 0.00 52 1012.0
20260509162929 25 319 1.6 9.7 0.00 0.10 0.00 56 1012.0
20260509162430 25 196 1.6 9.7 0.00 0.10 0.00 58 1012.0
20260509161929 25 241 3.2 6.4 0.00 0.10 0.00 56 1012.0
20260509161429 25 183 1.6 6.4 0.00 0.10 0.00 57 1012.0
20260509160929 25 280 1.6 6.4 0.00 0.10 0.00 61 1012.1
20260509160429 24 91 1.6 6.4 0.00 0.10 0.00 59 1012.0
20260509155929 24 180 1.6 6.4 0.00 0.10 0.00 64 1012.0
20260509155429 23 249 1.6 4.8 0.00 0.10 0.00 62 1012.0
20260509154928 23 268 3.2 8.0 0.00 0.10 0.00 61 1012.0
20260509154429 23 196 3.2 8.0 0.00 0.10 0.00 62 1012.0
20260509153936 23 267 3.2 9.7 0.00 0.10 0.00 65 1012.1
20260509153433 23 200 1.6 9.7 0.00 0.10 0.00 64 1012.1
20260509152931 23 257 3.2 8.0 0.00 0.10 0.00 70 1012.1
20260509152430 22 157 3.2 8.0 0.00 0.10 0.00 66 1012.1
20260509151930 22 218 1.6 6.4 0.00 0.10 0.00 68 1012.0
20260509150429 22 150 1.6 6.4 0.00 0.10 0.00 72 1011.9
20260509145930 21 212 1.6 6.4 0.00 0.10 0.00 72 1011.9
20260509144928 21 198 1.6 6.4 0.00 0.10 0.00 74 1012.0
20260509144429 21 175 1.6 6.4 0.00 0.10 0.00 74 1012.0
20260509143927 20 273 1.6 4.8 0.00 0.10 0.00 78 1011.9
20260509142407 18 152 1.6 6.4 0.00 0.10 0.00 84 1011.8
20260509141908 18 163 1.6 4.8 0.00 0.10 0.00 87 1011.9
20260509141407 17 145 1.6 4.8 0.00 0.10 0.00 91 1011.9
20260509140907 17 167 1.6 4.8 0.00 0.10 0.00 94 1011.8
20260509140405 17 190 1.6 4.8 0.00 0.10 0.00 95 1011.8
20260509135403 16 133 1.6 6.4 0.00 0.10 0.00 96 1011.6
20260509134901 16 183 1.6 4.8 0.00 0.10 0.00 96 1011.6
20260509134401 15 150 1.6 6.4 0.00 0.10 0.00 97 1011.5
20260509133900 15 166 0.0 6.4 0.00 0.10 0.00 96 1011.6
20260509132901 14 213 0.0 4.8 0.00 0.10 0.00 97 1011.5
20260509132400 13 196 0.0 1.6 0.00 0.10 0.00 97 1011.4
20260509131901 13 196 0.0 1.6 0.00 0.10 0.00 96 1011.3
20260509131401 12 196 0.0 1.6 0.00 0.10 0.00 96 1011.3
20260509130354 11 205 0.0 1.6 0.00 0.10 0.00 96 1011.3
20260509125847 11 205 0.0 0.0 0.00 0.10 0.00 95 1011.4
20260509125339 10 205 0.0 0.0 0.00 0.10 0.00 95 1011.4
20260509124837 10 205 0.0 0.0 0.00 0.10 0.00 95 1011.3
20260509123336 10 205 0.0 0.0 0.00 0.10 0.00 94 1011.3
20260509122833 10 205 0.0 0.0 0.00 0.10 0.00 94 1011.2
20260509122333 10 205 0.0 0.0 0.00 0.10 0.00 94 1010.9
20260509121833 10 205 0.0 0.0 0.00 0.10 0.00 94 1010.9
20260509120830 9 205 0.0 0.0 0.00 0.10 0.00 94 1010.8